Regional Weather Roundup
Issued by NWS

Home | Current Version | Previous Version | Graphics & Text | Print | Product List | Glossary On
Versions: 1 2 3 4 5 6 7 8 9 10 11 12 13 14 15 16 17 18 19 20 21 22 23 24 25 26 27
000
ASUS45 KCYS 160410
RWRWY

WYOMING REGIONAL WEATHER ROUNDUP
NATIONAL WEATHER SERVICE CHEYENNE WY
1000 PM MDT SUN OCT 15 2017

NOTE:  "FAIR" INDICATES FEW OR NO CLOUDS BELOW 12,000 FEET
WITH NO SIGNIFICANT WEATHER AND/OR OBSTRUCTIONS TO VISIBILITY.

WYZ001-160500-
YELLOWSTONE NATIONAL PARK

CITY           SKY/WX    TMP DP  RH WIND       PRES   REMARKS
LK YELLOWSTONE   N/A     26  24  92 NW3       30.48S
W YELLOWSTONE  NOT AVBL

$$
WYZ002>013-054>058-071-098>099-160500-
NORTHERN WYOMING

CITY           SKY/WX    TMP DP  RH WIND       PRES   REMARKS
JACKSON        FAIR      28  26  92 N5        30.46S WCI  23
CODY           FAIR      52  25  35 VRB7      30.30S
GREYBULL       FAIR      41  27  57 SE5       30.28S
WORLAND        FAIR      37  30  75 W3        30.28S
SHERIDAN       FAIR      35  27  72 CALM      30.22F
BUFFALO        FAIR      39  23  52 SW5       30.26F
GILLETTE       FAIR      37  27  67 CALM      30.26R
HULETT         FAIR      41  28  60 SW6       30.27S
NEWCASTLE      FAIR      41  27  56 S6        30.31S

$$
WYZ014>020-022>026-101>103-160500-
CENTRAL WYOMING

CITY           SKY/WX    TMP DP  RH WIND       PRES   REMARKS
BIG PINEY      FAIR      28  20  71 NW3       30.46S
PINEDALE       FAIR      28  23  80 W6        30.47F WCI  22
DUBOIS         FAIR      36  25  64 NW16      30.41S WCI  26
LANDER         FAIR      42  30  62 N6        30.33S
RIVERTON       FAIR      37  28  70 N3        30.35S
CASPER         FAIR      41  24  51 SW12      30.33S
DOUGLAS        FAIR      36  25  64 SE6       30.33S WCI  31

$$
WYZ021-027>030-104>119-160500-
SOUTHERN WYOMING

CITY           SKY/WX    TMP DP  RH WIND       PRES   REMARKS
EVANSTON       FAIR      49  12  22 CALM      30.46S
KEMMERER       FAIR      37  18  44 NW5       30.48R WCI  34
FORT BRIDGER   FAIR      49  12  23 W3        30.49S
ROCK SPRINGS   FAIR      42  10  27 SW6       30.46R
DIXON          FAIR      37  16  42 SE5       30.51R WCI  33
RAWLINS        FAIR      42  13  30 SW5       30.45S
SARATOGA       FAIR      30  19  64 NE3       30.48R
LARAMIE        FAIR      34  19  54 E3        30.45S
CHEYENNE       FAIR      38  26  62 W9        30.42S WCI  31
TORRINGTON     FAIR      38  25  59 E8        30.33S WCI  32
PINE BLUFFS    FAIR      34  27  75 MISG      30.40S

$$




USA.gov is the U.S. government's official web portal to all federal, state and local government web resources and services.